| time (UTC) | temp F | wind direction | speed knots | gust knots | rain 1hr in | rain 24hr in | rain mn in | humidity % | barometer mb |
| 20260508140504 | 60 | 66 | 0.9 | 6.1 | 0.00 | 0.01 | 0.00 | 55 | 1015.7 |
| 20260508133504 | 59 | 68 | 0.0 | 0.0 | 0.00 | 0.01 | 0.00 | 57 | 1015.7 |
| 20260508133005 | 59 | 101 | 0.0 | 10.4 | 0.00 | 0.01 | 0.00 | 56 | 1015.7 |
| 20260508130505 | 59 | 97 | 0.0 | 6.1 | 0.00 | 0.01 | 0.00 | 57 | 1015.5 |
| 20260508130004 | 60 | 81 | 2.6 | 13.9 | 0.00 | 0.01 | 0.00 | 58 | 1015.4 |
| 20260508123504 | 59 | 86 | 0.9 | 10.4 | 0.00 | 0.01 | 0.00 | 56 | 1015.4 |
| 20260508123004 | 59 | 101 | 1.7 | 13.9 | 0.00 | 0.01 | 0.00 | 58 | 1015.4 |
| 20260508120504 | 58 | 103 | 0.9 | 8.7 | 0.00 | 0.01 | 0.00 | 52 | 1015.3 |
| 20260508120004 | 58 | 90 | 0.9 | 10.4 | 0.00 | 0.01 | 0.00 | 55 | 1015.2 |
| 20260508113504 | 56 | 98 | 0.9 | 10.4 | 0.00 | 0.01 | 0.00 | 61 | 1015.1 |
| 20260508113004 | 56 | 76 | 1.7 | 10.4 | 0.00 | 0.01 | 0.00 | 63 | 1015.1 |
| 20260508110504 | 55 | 93 | 0.9 | 6.1 | 0.00 | 0.01 | 0.00 | 65 | 1015.1 |
| 20260508103504 | 56 | 79 | 0.9 | 7.8 | 0.00 | 0.01 | 0.00 | 66 | 1015.0 |
| 20260508103005 | 56 | 72 | 0.0 | 8.7 | 0.00 | 0.01 | 0.00 | 66 | 1015.0 |
| 20260508100004 | 55 | 77 | 0.0 | 8.7 | 0.00 | 0.01 | 0.00 | 70 | 1014.9 |
| 20260508093504 | 54 | 99 | 0.0 | 0.0 | 0.00 | 0.01 | 0.00 | 67 | 1014.9 |
| 20260508093005 | 54 | 77 | 0.0 | 10.4 | 0.00 | 0.01 | 0.00 | 70 | 1014.8 |
| 20260508090004 | 53 | 88 | 1.7 | 11.3 | 0.00 | 0.01 | 0.00 | 70 | 1014.7 |
| 20260508083504 | 51 | 93 | 0.0 | 0.0 | 0.00 | 0.01 | 0.00 | 75 | 1014.5 |
| 20260508083005 | 51 | 98 | 0.0 | 2.6 | 0.00 | 0.01 | 0.00 | 76 | 1014.5 |
| 20260508080504 | 51 | 105 | 0.0 | 6.1 | 0.00 | 0.01 | 0.00 | 77 | 1014.4 |
| 20260508080004 | 51 | 99 | 0.0 | 5.2 | 0.00 | 0.01 | 0.00 | 77 | 1014.4 |
| 20260508073504 | 51 | 96 | 0.0 | 0.0 | 0.00 | 0.01 | 0.00 | 78 | 1014.0 |
| 20260508073004 | 51 | 100 | 0.0 | 6.1 | 0.00 | 0.01 | 0.00 | 80 | 1013.9 |
| 20260508070504 | 50 | 110 | 0.0 | 0.0 | 0.00 | 0.01 | 0.00 | 81 | 1013.6 |
| 20260508063504 | 49 | 103 | 0.0 | 0.0 | 0.00 | 0.01 | 0.00 | 82 | 1013.3 |
| 20260508063004 | 49 | 134 | 0.0 | 0.0 | 0.00 | 0.01 | 0.00 | 82 | 1013.3 |
| 20260508060005 | 48 | 117 | 0.0 | 0.0 | 0.00 | 0.01 | 0.00 | 82 | 1012.9 |
| 20260508053504 | 47 | 126 | 0.0 | 0.0 | 0.00 | 0.01 | 0.00 | 82 | 1012.6 |
| 20260508053005 | 47 | 124 | 0.0 | 0.0 | 0.00 | 0.01 | 0.00 | 82 | 1012.5 |
| 20260508050004 | 46 | 132 | 0.0 | 0.0 | 0.00 | 0.01 | 0.00 | 83 | 1012.3 |
| 20260508043504 | 47 | 110 | 0.0 | 0.0 | 0.00 | 0.01 | 0.00 | 82 | 1012.2 |
| 20260508043004 | 47 | 117 | 0.0 | 0.0 | 0.00 | 0.01 | 0.00 | 82 | 1012.0 |
| 20260508040504 | 47 | 100 | 0.0 | 0.0 | 0.00 | 0.01 | 0.00 | 83 | 1011.9 |
| 20260508033504 | 47 | 85 | 0.0 | 0.0 | 0.00 | 0.01 | 0.00 | 82 | 1011.7 |
| 20260508033005 | 47 | 82 | 0.0 | 0.9 | 0.00 | 0.01 | 0.00 | 82 | 1011.7 |
| 20260508030504 | 48 | 81 | 0.0 | 0.0 | 0.00 | 0.01 | 0.00 | 81 | 1011.8 |
| 20260508023504 | 49 | 85 | 0.0 | 0.0 | 0.00 | 0.01 | 0.00 | 79 | 1011.7 |
| 20260508023004 | 49 | 87 | 0.0 | 0.9 | 0.00 | 0.01 | 0.00 | 79 | 1011.6 |
| 20260508020504 | 49 | 103 | 0.0 | 0.0 | 0.00 | 0.01 | 0.00 | 79 | 1011.4 |
| 20260508020004 | 49 | 79 | 0.0 | 0.9 | 0.00 | 0.01 | 0.00 | 79 | 1011.4 |
| 20260508013504 | 49 | 78 | 0.0 | 0.0 | 0.00 | 0.01 | 0.00 | 80 | 1011.7 |
| 20260508013005 | 48 | 76 | 0.0 | 0.0 | 0.00 | 0.01 | 0.00 | 80 | 1011.7 |
| 20260508010504 | 47 | 109 | 0.0 | 0.0 | 0.00 | 0.01 | 0.00 | 82 | 1011.7 |
| 20260508010004 | 47 | 112 | 0.0 | 0.0 | 0.00 | 0.01 | 0.00 | 82 | 1011.8 |
| 20260508003005 | 48 | 130 | 0.0 | 0.0 | 0.00 | 0.01 | 0.00 | 81 | 1011.7 |
| 20260507233503 | 49 | 76 | 0.0 | 0.9 | 0.00 | 0.01 | 0.00 | 79 | 1011.4 |
| 20260507233004 | 49 | 81 | 0.0 | 6.1 | 0.00 | 0.01 | 0.00 | 79 | 1011.3 |
| 20260507223503 | 50 | 98 | 0.9 | 6.1 | 0.00 | 0.01 | 0.01 | 79 | 1011.3 |
| 20260507223004 | 50 | 87 | 0.0 | 7.8 | 0.00 | 0.01 | 0.01 | 79 | 1011.3 |
| 20260507220504 | 50 | 70 | 0.0 | 1.7 | 0.00 | 0.01 | 0.01 | 78 | 1011.2 |
| 20260507220004 | 50 | 75 | 0.0 | 0.0 | 0.00 | 0.01 | 0.01 | 79 | 1011.3 |
| 20260507213004 | 51 | 98 | 0.0 | 0.9 | 0.00 | 0.01 | 0.01 | 78 | 1011.3 |
| 20260507210504 | 51 | 87 | 0.0 | 0.0 | 0.00 | 0.01 | 0.01 | 77 | 1011.3 |
| 20260507210005 | 51 | 76 | 0.0 | 6.1 | 0.00 | 0.01 | 0.01 | 77 | 1011.3 |
| 20260507203504 | 51 | 100 | 0.0 | 0.0 | 0.00 | 0.01 | 0.01 | 77 | 1011.3 |
| 20260507203005 | 51 | 77 | 0.0 | 0.9 | 0.00 | 0.01 | 0.01 | 77 | 1011.3 |
| 20260507200504 | 51 | 100 | 0.0 | 0.0 | 0.00 | 0.01 | 0.01 | 78 | 1011.1 |
| 20260507200004 | 51 | 115 | 0.0 | 0.0 | 0.00 | 0.01 | 0.01 | 78 | 1011.1 |
| 20260507193504 | 52 | 175 | 0.0 | 0.0 | 0.00 | 0.01 | 0.01 | 79 | 1010.9 |
| 20260507193005 | 52 | 175 | 0.0 | 0.0 | 0.00 | 0.01 | 0.01 | 78 | 1010.8 |
| 20260507190504 | 52 | 124 | 0.0 | 0.0 | 0.00 | 0.01 | 0.01 | 77 | 1010.8 |
| 20260507190005 | 52 | 125 | 0.0 | 0.0 | 0.00 | 0.01 | 0.01 | 78 | 1010.8 |
| 20260507183504 | 52 | 161 | 0.0 | 0.0 | 0.00 | 0.01 | 0.01 | 78 | 1010.8 |
| 20260507183004 | 52 | 161 | 0.0 | 0.0 | 0.00 | 0.01 | 0.01 | 78 | 1010.8 |
| 20260507180504 | 53 | 132 | 0.0 | 0.0 | 0.00 | 0.01 | 0.01 | 78 | 1010.8 |
| 20260507180005 | 53 | 71 | 0.0 | 0.0 | 0.00 | 0.01 | 0.01 | 78 | 1010.7 |
| 20260507173504 | 54 | 117 | 0.0 | 0.0 | 0.00 | 0.01 | 0.01 | 77 | 1010.6 |
| 20260507170504 | 51 | 118 | 0.0 | 0.0 | 0.00 | 0.01 | 0.01 | 81 | 1010.7 |
| 20260507170004 | 50 | 105 | 0.0 | 0.9 | 0.00 | 0.01 | 0.01 | 81 | 1010.8 |